Regional Weather Roundup
Issued by NWS Newport/Morehead, NC

Current Version | Previous Version | Graphics & Text | Print | Product List | Glossary On
Versions: 1 2 3 4 5 6 7 8 9 10 11 12 13 14 15 16 17 18 19 20 21 22 23 24 25 26 27 28 29 30 31 32 33 34 35 36 37 38 39 40 41 42 43 44 45 46 47 48 49 50
000 ASUS42 KMHX 051625 RWRMHX WEATHER ROUNDUP FOR EASTERN NORTH CAROLINA NATIONAL WEATHER SERVICE NEWPORT/MOREHEAD CITY NC 1200 PM EDT SAT SEP 05 2015 NOTE: "FAIR" INDICATES FEW OR NO CLOUDS BELOW 12,000 FEET WITH NO SIGNIFICANT WEATHER AND/OR OBSTRUCTIONS TO VISIBILITY NCZ015>017-031-032-045>047-102-103-051700- NORTH COAST CITY SKY/WX TMP DP RH WIND PRES REMARKS EDENTON PTSUNNY 81 71 69 NE10G18 30.12S ELIZABETH CITY PTSUNNY 83 72 69 NE22 30.12S KITTY HAWK SUNNY 85 74 70 NE9G20 30.09S MANTEO PTSUNNY 82 74 76 NE23 30.10S $$ NCZ045>047-081-094-103-104-051700- CENTRAL COAST CITY SKY/WX TMP DP RH WIND PRES REMARKS FRISCO PTSUNNY 85 75 72 NE12G20 30.06F SWANQUARTER N/A 82 N/A N/A E6G12 30.06S $$ NCZ095-097-098-100-101-051700- SOUTHERN COAST CITY SKY/WX TMP DP RH WIND PRES REMARKS BEAUFORT PTSUNNY 82 75 79 N12 30.07F CEDAR ISLAND N/A 84 N/A N/A NE13 30.12S JACKSONVILLE PTSUNNY 84 70 62 N12 30.08F PINEY ISLAND MOSUNNY N/A N/A N/A NE14 30.07S WILMINGTON SUNNY 85 70 60 N14 30.08F $$ NCZ011>013-027>030-043-044-078>080-089-090>093-098-051700- COASTAL PLAIN CITY SKY/WX TMP DP RH WIND PRES REMARKS AHOSKIE MOSUNNY 81 71 71 NE7 30.14S CLINTON MOSUNNY 83 72 70 N10G17 30.13S ELIZABETHTOWN MOSUNNY 83 70 66 NE3 30.11F GOLDSBORO PTSUNNY 81 73 78 N9G17 30.11F GREENVILLE LGT RAIN 81 73 78 NE8 30.13S HAVELOCK PTSUNNY 85 73 67 NE10 30.09F KENANSVILLE PTSUNNY 81 69 67 N3 30.13S KINSTON MOSUNNY 82 72 69 NE7 30.12F NEW BERN MOSUNNY 85 71 63 NE10G18 30.10F RICHLANDS MOSUNNY 84 68 58 N12 30.09F ROCKY MOUNT PTSUNNY 83 73 72 N12 30.15S WASHINGTON PTSUNNY 82 72 71 NE12 30.10F WHITEVILLE SUNNY 83 70 64 N7 30.10S $$ AMZ130-135-150-152-154-156-158-170-250-252-270-ANZ085-086-088-633-658-670-051700- MARINE OBSERVATIONS STATION/POSITION TIME TEMP WIND PRES WAVE SWELL AIR SEA DIR/SP/G HT/PER HT/PER (UTC) (F) (DEG/KT/KT) (MB) (FT/S) (FT/S) CHESAPEAKE LIGHT 1600 78 60/ 25/ 27 1021.3 64 E VA BEACH 1550 79 80 50/ 21/ 25 1019.0 7/ 8 5/ 8 DUCK 1600 79 80 40/ 21/ 23 1018.8 2 E DUCK 1511 80 N/A 7/ 7 OREGON INLET 1600 81 80 30/ 14/ 19 1018.6 13E OREGON INLT 1600 79 N/A 5/ 6 HATTERAS CG 1600 83 82 30/ 10/ 16 1017.9 DIAMOND BUOY 1550 81 84 40/ 14/ 16 1017.7 3/ 6 2/ 8 CAPE LOOKOUT 1600 81 40/ 13/ 16 1018.0 BEAUFORT LAB 1600 82 81 20/ 9/ 15 1017.6 30 SE NEW RVR IN NOT AVBL 30 SE NEW RVR IN 1525 81 N/A 4/ 5 27 SE WRIGHTSVLE 1500 77 82 60/ 17/ 21 N/A 5 SE WRIGHTSVLE 1508 80 82 40/ 16/ 19 1018.4 225 S CAPE HAT 1550 82 84 80/ 6/ 8 1015.7 2/ 8 2/ 8 41 SE CHARLESTON 1550 82 84 30/ 14/ 17 1017.5 2/ 4 $$

USA.gov is the U.S. government's official web portal to all federal, state and local government web resources and services.